Weather History for KMCC - December, 2012

Change the Weather History Date:

Thursday, December 6, 2012

  Actual Average (KMHR) Record (KMHR)
Temperature  
Mean Temperature 52 °F -  
Max Temperature 57 °F 53 °F 66 °F (2014)
Min Temperature 48 °F 39 °F 24 °F (2011)
Degree Days  
Heating Degree Days 12    
Growing Degree Days 2 (Base 50)    
Moisture  
Dew Point 52 °F    
Average Humidity 91    
Maximum Humidity 100    
Minimum Humidity 77    
Precipitation  
Precipitation 0.00 in - - ()
Sea Level Pressure  
Sea Level Pressure 30.12 in    
Wind  
Wind Speed 5 mph (NW)    
Max Wind Speed 9 mph    
Max Gust Speed -    
Visibility 6 miles    
Events Fog , Rain    
Averages and records for this station are not official NWS values.
T = Trace of Precipitation, MM = Missing Value Source: NWS Daily Summary

Daily Weather History Graph

Daily Weather History Graph

Search for Another Location

Airport or City:

Trip Planner

Search our weather history database for the weather conditions in past years. The results will help you decide how hot, cold, wet, or windy it might be!

Date:

Astronomy

Dec. 06, 2012 Rise Set
Actual Time 7:09 AM PST 4:44 PM PST
Civil Twilight 6:40 AM PST 5:13 PM PST
Nautical Twilight 6:07 AM PST 5:46 PM PST
Astronomical Twilight 5:34 AM PST 6:18 PM PST
Moon No Moon Rise 12:08 PM PST (12/6)
Length of Visible Light 10h 33m
Length of Day
9h 34m
Waning Gibbous, 48% of the Moon is Illuminated
Dec 6
Waning Gibbous
Dec 13
New
Dec 19
First Quarter
Dec 28
Full
Jan 4
Last Quarter

Hourly Weather History & Observations

Time (PST) Temp. Dew Point Humidity Pressure Visibility Wind Dir Wind Speed Gust Speed Precip Events Conditions
12:10 AM 53.6 °F 53.6 °F 100% 30.14 in 1.0 mi NNW 4.6 mph - N/A   Overcast
12:30 AM 53.6 °F 53.6 °F 100% 30.14 in 0.2 mi NW 4.6 mph - N/A Fog Fog
12:50 AM 53.6 °F 51.8 °F 94% 30.14 in 0.2 mi NW 4.6 mph - N/A Fog Fog
1:10 AM 51.8 °F 51.8 °F 100% 30.13 in 0.2 mi NW 4.6 mph - N/A Fog Fog
1:30 AM 51.8 °F 51.8 °F 100% 30.13 in 0.2 mi Calm Calm - N/A Fog Fog
1:50 AM 51.8 °F 51.8 °F 100% 30.13 in 0.5 mi Calm Calm - N/A Fog Fog
2:10 AM 53.6 °F 51.8 °F 94% 30.14 in 1.8 mi Calm Calm - N/A   Overcast
2:30 AM 53.6 °F 51.8 °F 94% 30.13 in 3.0 mi North 4.6 mph - N/A   Overcast
2:50 AM 53.6 °F 53.6 °F 100% 30.13 in 3.0 mi North 5.8 mph - N/A   Overcast
3:10 AM 53.6 °F 53.6 °F 100% 30.13 in 3.0 mi North 4.6 mph - N/A   Overcast
3:30 AM 53.6 °F 53.6 °F 100% 30.12 in 2.5 mi NNW 3.5 mph - N/A   Overcast
3:50 AM 53.6 °F 53.6 °F 100% 30.12 in 2.0 mi NNW 3.5 mph - N/A   Overcast
4:10 AM 53.6 °F 53.6 °F 100% 30.11 in 1.2 mi Calm Calm - N/A   Overcast
4:30 AM 53.6 °F 53.6 °F 100% 30.11 in 1.5 mi Calm Calm - N/A   Overcast
4:50 AM 53.6 °F 53.6 °F 100% 30.12 in 2.0 mi NNW 4.6 mph - N/A   Overcast
5:10 AM 53.6 °F 53.6 °F 100% 30.12 in 1.8 mi North 5.8 mph - N/A   Overcast
5:30 AM 53.6 °F 53.6 °F 100% 30.12 in 2.0 mi NNW 4.6 mph - N/A   Overcast
5:50 AM 53.6 °F 53.6 °F 100% 30.12 in 2.5 mi NNW 3.5 mph - N/A   Overcast
6:10 AM 53.6 °F 53.6 °F 100% 30.12 in 1.5 mi NW 5.8 mph - N/A   Overcast
6:30 AM 53.6 °F 53.6 °F 100% 30.12 in 0.5 mi NW 5.8 mph - N/A Fog Fog
6:50 AM 53.6 °F 53.6 °F 100% 30.12 in 1.8 mi NW 4.6 mph - N/A   Overcast
7:10 AM 53.6 °F 53.6 °F 100% 30.12 in 1.5 mi NW 4.6 mph - N/A   Overcast
7:30 AM 53.6 °F 53.6 °F 100% 30.12 in 1.0 mi NW 4.6 mph - N/A   Overcast
7:50 AM 53.6 °F 53.6 °F 100% 30.12 in 1.2 mi NW 3.5 mph - N/A   Overcast
8:10 AM 53.6 °F 53.6 °F 100% 30.12 in 1.0 mi NW 6.9 mph - N/A   Overcast
8:30 AM 53.6 °F 53.6 °F 100% 30.13 in 1.2 mi NW 4.6 mph - N/A   Overcast
8:50 AM 53.6 °F 53.6 °F 100% 30.13 in 2.5 mi NW 4.6 mph - N/A   Overcast
9:10 AM 55.4 °F 53.6 °F 94% 30.13 in 2.5 mi NW 6.9 mph - N/A   Overcast
9:30 AM 55.4 °F 53.6 °F 94% 30.14 in 1.8 mi NW 9.2 mph - N/A   Overcast
9:50 AM 55.4 °F 53.6 °F 94% 30.15 in 1.5 mi NNW 9.2 mph - N/A   Overcast
10:10 AM 55.4 °F 53.6 °F 94% 30.15 in 0.8 mi NNW 8.1 mph - N/A Rain Light Rain
10:30 AM 55.4 °F 53.6 °F 94% 30.15 in 1.2 mi NNW 5.8 mph - N/A   Overcast
10:50 AM 55.4 °F 53.6 °F 94% 30.15 in 1.5 mi NW 8.1 mph - N/A   Overcast
11:10 AM 55.4 °F 53.6 °F 94% 30.13 in 2.5 mi NW 5.8 mph - N/A   Overcast
11:30 AM 55.4 °F 53.6 °F 94% 30.13 in 3.0 mi North 8.1 mph - N/A   Overcast
11:50 AM 55.4 °F 53.6 °F 94% 30.12 in 3.0 mi NNW 6.9 mph - N/A   Overcast
12:10 PM 57.2 °F 55.4 °F 94% 30.12 in 10.0 mi NNW 6.9 mph - N/A   Overcast
12:30 PM 57.2 °F 53.6 °F 88% 30.11 in 10.0 mi NNW 8.1 mph - N/A   Overcast
12:50 PM 57.2 °F 53.6 °F 88% 30.10 in 10.0 mi NNW 9.2 mph - N/A   Overcast
1:10 PM 57.2 °F 53.6 °F 88% 30.10 in 10.0 mi NW 9.2 mph - N/A   Overcast
1:30 PM 57.2 °F 53.6 °F 88% 30.10 in 10.0 mi NW 8.1 mph - N/A   Overcast
1:50 PM 57.2 °F 51.8 °F 82% 30.10 in 10.0 mi NW 9.2 mph - N/A   Overcast
2:10 PM 57.2 °F 51.8 °F 82% 30.09 in 10.0 mi NNW 9.2 mph - N/A   Overcast
2:30 PM 57.2 °F 50.0 °F 77% 30.08 in 10.0 mi NW 9.2 mph - N/A   Overcast
2:50 PM 57.2 °F 51.8 °F 82% 30.09 in 10.0 mi NW 8.1 mph - N/A   Overcast
3:10 PM 57.2 °F 50.0 °F 77% 30.09 in 10.0 mi NW 5.8 mph - N/A   Overcast
3:30 PM 57.2 °F 50.0 °F 77% 30.09 in 10.0 mi WNW 6.9 mph - N/A   Overcast
3:50 PM 57.2 °F 50.0 °F 77% 30.09 in 10.0 mi West 5.8 mph - N/A   Overcast
4:10 PM 57.2 °F 50.0 °F 77% 30.09 in 10.0 mi WNW 4.6 mph - N/A   Overcast
4:30 PM 57.2 °F 50.0 °F 77% 30.09 in 10.0 mi WNW 4.6 mph - N/A   Overcast
4:50 PM 57.2 °F 50.0 °F 77% 30.09 in 10.0 mi Calm Calm - N/A   Overcast
5:10 PM 57.2 °F 50.0 °F 77% 30.09 in 10.0 mi WNW 3.5 mph - N/A   Unknown
5:30 PM 57.2 °F 50.0 °F 77% 30.10 in 10.0 mi Calm Calm - N/A   Overcast
5:50 PM 57.2 °F 50.0 °F 77% 30.10 in 10.0 mi WNW 4.6 mph - N/A   Overcast
6:10 PM 55.4 °F 51.8 °F 88% 30.10 in 10.0 mi North 3.5 mph - N/A   Overcast
6:30 PM 55.4 °F 51.8 °F 88% 30.11 in 10.0 mi NNW 4.6 mph - N/A   Overcast
6:50 PM 57.2 °F 50.0 °F 77% 30.12 in 10.0 mi NNW 5.8 mph - N/A   Overcast
7:10 PM 57.2 °F 50.0 °F 77% 30.12 in 10.0 mi NNW 5.8 mph - N/A   Overcast
7:30 PM 55.4 °F 50.0 °F 82% 30.12 in 10.0 mi North 6.9 mph - N/A   Overcast
7:50 PM 55.4 °F 50.0 °F 82% 30.12 in 10.0 mi NNW 6.9 mph - N/A   Overcast
8:10 PM 55.4 °F 50.0 °F 82% 30.12 in 10.0 mi NW 5.8 mph - N/A   Overcast
8:30 PM 55.4 °F 48.2 °F 77% 30.12 in 10.0 mi NW 4.6 mph - N/A   Overcast
8:50 PM 55.4 °F 48.2 °F 77% 30.12 in 10.0 mi WNW 5.8 mph - N/A   Mostly Cloudy
9:10 PM 53.6 °F 50.0 °F 88% 30.12 in 10.0 mi WNW 5.8 mph - N/A   Partly Cloudy
9:30 PM 51.8 °F 50.0 °F 94% 30.12 in 10.0 mi West 8.1 mph - N/A   Clear
9:50 PM 50.0 °F 48.2 °F 94% 30.12 in 10.0 mi West 5.8 mph - N/A   Clear
10:10 PM 50.0 °F 48.2 °F 94% 30.12 in 10.0 mi West 4.6 mph - N/A   Clear
10:30 PM 48.2 °F 46.4 °F 93% 30.13 in 10.0 mi WNW 3.5 mph - N/A   Clear
10:50 PM 48.2 °F 46.4 °F 93% 30.13 in 10.0 mi West 3.5 mph - N/A   Clear
11:10 PM 48.2 °F 46.4 °F 93% 30.13 in 10.0 mi Calm Calm - N/A   Clear
11:30 PM 50.0 °F 48.2 °F 94% 30.13 in 10.0 mi Calm Calm - N/A   Clear
11:50 PM 48.2 °F 46.4 °F 93% 30.13 in 10.0 mi NNE 3.5 mph - N/A   Clear